| time (UTC) | temp F | wind direction | speed knots | gust knots | rain 1hr in | rain 24hr in | rain mn in | humidity % | barometer mb |
| 20260506015414 | 50 | 197 | 0.9 | 0.9 | 0.00 | 0.00 | 0.00 | 80 | 1016.3 |
| 20260506014910 | 50 | 87 | 1.7 | 1.7 | 0.00 | 0.00 | 0.00 | 80 | 1016.1 |
| 20260506014407 | 50 | 334 | 3.5 | 5.2 | 0.00 | 0.00 | 0.00 | 80 | 1016.1 |
| 20260506013904 | 50 | 289 | 0.9 | 1.7 | 0.00 | 0.00 | 0.00 | 80 | 1015.8 |
| 20260506013402 | 50 | 53 | 2.6 | 3.5 | 0.00 | 0.00 | 0.00 | 79 | 1015.8 |
| 20260506012857 | 50 | 292 | 3.5 | 5.2 | 0.00 | 0.00 | 0.00 | 79 | 1015.8 |
| 20260506012354 | 50 | 227 | 0.0 | 0.0 | 0.00 | 0.00 | 0.00 | 78 | 1015.8 |
| 20260506011851 | 50 | 24 | 2.6 | 3.5 | 0.00 | 0.00 | 0.00 | 78 | 1015.6 |
| 20260506011348 | 50 | 265 | 2.6 | 3.5 | 0.00 | 0.00 | 0.00 | 79 | 1015.5 |
| 20260506010845 | 50 | 112 | 0.9 | 0.9 | 0.00 | 0.00 | 0.00 | 78 | 1015.5 |
| 20260506010344 | 50 | 302 | 0.9 | 0.9 | 0.00 | 0.00 | 0.00 | 78 | 1015.3 |
| 20260506005840 | 51 | 240 | 0.9 | 1.7 | 0.00 | 0.00 | 0.00 | 78 | 1014.9 |
| 20260506005337 | 51 | 338 | 1.7 | 1.7 | 0.00 | 0.00 | 0.00 | 78 | 1015.1 |
| 20260506004833 | 51 | 342 | 3.5 | 3.5 | 0.00 | 0.00 | 0.00 | 78 | 1014.6 |
| 20260506004331 | 51 | 326 | 0.9 | 1.7 | 0.00 | 0.00 | 0.00 | 78 | 1014.5 |
| 20260506003827 | 51 | 249 | 5.2 | 7.0 | 0.00 | 0.00 | 0.00 | 77 | 1014.4 |
| 20260506003323 | 51 | 351 | 1.7 | 1.7 | 0.00 | 0.00 | 0.00 | 77 | 1014.5 |
| 20260506002819 | 51 | 31 | 4.3 | 6.1 | 0.00 | 0.00 | 0.00 | 77 | 1014.5 |
| 20260506002316 | 51 | 242 | 0.9 | 0.9 | 0.00 | 0.00 | 0.00 | 77 | 1014.4 |
| 20260506001812 | 51 | 65 | 3.5 | 5.2 | 0.00 | 0.00 | 0.00 | 76 | 1014.4 |
| 20260506001309 | 51 | 224 | 1.7 | 1.7 | 0.00 | 0.00 | 0.00 | 76 | 1014.4 |
| 20260506000806 | 51 | 78 | 1.7 | 1.7 | 0.00 | 0.00 | 0.00 | 76 | 1014.5 |
| 20260506000304 | 51 | 344 | 0.9 | 0.9 | 0.00 | 0.00 | 0.00 | 75 | 1014.4 |
| 20260505235800 | 51 | 339 | 1.7 | 2.6 | 0.00 | 0.00 | 0.00 | 75 | 1014.2 |
| 20260505235258 | 52 | 270 | 0.0 | 0.9 | 0.00 | 0.00 | 0.00 | 75 | 1014.5 |
| 20260505234755 | 52 | 17 | 1.7 | 2.6 | 0.00 | 0.00 | 0.00 | 74 | 1013.9 |
| 20260505234253 | 52 | 180 | 0.9 | 0.9 | 0.00 | 0.00 | 0.00 | 73 | 1014.3 |
| 20260505233749 | 52 | 282 | 0.9 | 1.7 | 0.00 | 0.00 | 0.00 | 73 | 1014.3 |
| 20260505233247 | 52 | 212 | 3.5 | 5.2 | 0.00 | 0.00 | 0.00 | 72 | 1014.5 |
| 20260505232744 | 52 | 342 | 2.6 | 3.5 | 0.00 | 0.00 | 0.00 | 72 | 1014.7 |
| 20260505232241 | 52 | 288 | 1.7 | 2.6 | 0.00 | 0.00 | 0.00 | 72 | 1014.6 |
| 20260505231737 | 52 | 359 | 3.5 | 8.7 | 0.00 | 0.00 | 0.00 | 72 | 1014.7 |
| 20260505231237 | 53 | 344 | 1.7 | 2.6 | 0.00 | 0.00 | 0.00 | 72 | 1014.3 |
| 20260505230735 | 53 | 285 | 1.7 | 2.6 | 0.00 | 0.00 | 0.00 | 72 | 1014.1 |
| 20260505230231 | 53 | 71 | 3.5 | 6.1 | 0.00 | 0.00 | 0.00 | 71 | 1013.8 |
| 20260505225727 | 53 | 166 | 3.5 | 5.2 | 0.00 | 0.00 | 0.00 | 71 | 1013.9 |
| 20260505225225 | 53 | 29 | 1.7 | 3.5 | 0.00 | 0.00 | 0.00 | 71 | 1014.1 |
| 20260505224720 | 53 | 274 | 2.6 | 5.2 | 0.00 | 0.00 | 0.00 | 71 | 1013.9 |
| 20260505224218 | 53 | 3 | 2.6 | 3.5 | 0.00 | 0.00 | 0.00 | 71 | 1013.9 |
| 20260505223715 | 53 | 336 | 1.7 | 2.6 | 0.00 | 0.00 | 0.00 | 71 | 1013.8 |
| 20260505223211 | 53 | 148 | 1.7 | 1.7 | 0.00 | 0.00 | 0.00 | 71 | 1013.9 |
| 20260505222707 | 53 | 306 | 3.5 | 6.1 | 0.00 | 0.00 | 0.00 | 71 | 1013.8 |
| 20260505222203 | 53 | 315 | 1.7 | 2.6 | 0.00 | 0.00 | 0.00 | 71 | 1013.7 |
| 20260505221701 | 53 | 273 | 0.0 | 0.0 | 0.00 | 0.00 | 0.00 | 72 | 1013.5 |
| 20260505221157 | 53 | 132 | 0.9 | 1.7 | 0.00 | 0.00 | 0.00 | 71 | 1013.5 |
| 20260505220654 | 54 | 211 | 2.6 | 6.1 | 0.00 | 0.00 | 0.00 | 71 | 1013.4 |
| 20260505220152 | 54 | 315 | 3.5 | 3.5 | 0.00 | 0.00 | 0.00 | 71 | 1013.5 |
| 20260505215650 | 54 | 35 | 1.7 | 5.2 | 0.00 | 0.00 | 0.00 | 71 | 1013.6 |
| 20260505215147 | 54 | 320 | 1.7 | 3.5 | 0.00 | 0.00 | 0.00 | 71 | 1013.6 |
| 20260505214645 | 54 | 343 | 3.5 | 6.1 | 0.00 | 0.00 | 0.00 | 70 | 1013.2 |
| 20260505214142 | 54 | 234 | 0.9 | 0.9 | 0.00 | 0.00 | 0.00 | 70 | 1012.7 |
| 20260505213640 | 54 | 88 | 3.5 | 5.2 | 0.00 | 0.00 | 0.00 | 70 | 1012.6 |
| 20260505213136 | 54 | 219 | 3.5 | 7.0 | 0.00 | 0.00 | 0.00 | 70 | 1012.9 |
| 20260505212632 | 54 | 197 | 3.5 | 5.2 | 0.00 | 0.00 | 0.00 | 70 | 1013.0 |
| 20260505212130 | 54 | 41 | 4.3 | 7.0 | 0.00 | 0.00 | 0.00 | 70 | 1013.0 |
| 20260505211627 | 55 | 236 | 0.9 | 0.9 | 0.00 | 0.00 | 0.00 | 69 | 1013.1 |
| 20260505211124 | 55 | 326 | 0.0 | 0.9 | 0.00 | 0.00 | 0.00 | 70 | 1012.4 |
| 20260505210621 | 55 | 63 | 2.6 | 3.5 | 0.00 | 0.00 | 0.00 | 69 | 1012.8 |
| 20260505210117 | 55 | 3 | 3.5 | 5.2 | 0.00 | 0.00 | 0.00 | 69 | 1012.5 |
| 20260505205615 | 55 | 337 | 4.3 | 6.1 | 0.00 | 0.00 | 0.00 | 71 | 1012.4 |
| 20260505205113 | 55 | 347 | 0.9 | 0.9 | 0.00 | 0.00 | 0.00 | 71 | 1013.0 |
| 20260505204609 | 55 | 79 | 1.7 | 2.6 | 0.00 | 0.00 | 0.00 | 71 | 1013.5 |
| 20260505204107 | 55 | 92 | 0.9 | 1.7 | 0.00 | 0.00 | 0.00 | 71 | 1013.7 |
| 20260505203604 | 55 | 27 | 3.5 | 7.0 | 0.00 | 0.00 | 0.00 | 71 | 1013.3 |
| 20260505203101 | 55 | 324 | 3.5 | 5.2 | 0.00 | 0.00 | 0.00 | 70 | 1012.9 |
| 20260505202556 | 55 | 356 | 4.3 | 7.8 | 0.00 | 0.00 | 0.00 | 71 | 1012.8 |
| 20260505202053 | 55 | 48 | 1.7 | 5.2 | 0.00 | 0.00 | 0.00 | 71 | 1012.6 |
| 20260505201549 | 55 | 301 | 3.5 | 6.1 | 0.00 | 0.00 | 0.00 | 71 | 1012.6 |
| 20260505201047 | 55 | 86 | 2.6 | 3.5 | 0.00 | 0.00 | 0.00 | 71 | 1012.5 |
| 20260505200545 | 55 | 90 | 6.1 | 13.0 | 0.00 | 0.00 | 0.00 | 71 | 1012.4 |
| 20260505200041 | 55 | 81 | 1.7 | 2.6 | 0.00 | 0.00 | 0.00 | 72 | 1012.6 |
| 20260505195537 | 55 | 297 | 1.7 | 2.6 | 0.00 | 0.00 | 0.00 | 72 | 1012.4 |
| 20260505195035 | 55 | 4 | 3.5 | 5.2 | 0.00 | 0.00 | 0.00 | 74 | 1012.6 |
| 20260505194532 | 55 | 14 | 5.2 | 7.8 | 0.00 | 0.00 | 0.00 | 74 | 1012.8 |
| 20260505194027 | 55 | 36 | 2.6 | 3.5 | 0.00 | 0.00 | 0.00 | 75 | 1012.6 |
| 20260505193525 | 55 | 227 | 2.6 | 7.0 | 0.00 | 0.00 | 0.00 | 74 | 1012.4 |
| 20260505193022 | 55 | 337 | 1.7 | 1.7 | 0.00 | 0.00 | 0.00 | 75 | 1012.5 |
| 20260505192521 | 55 | 229 | 3.5 | 3.5 | 0.00 | 0.00 | 0.00 | 75 | 1012.4 |
| 20260505192018 | 55 | 84 | 1.7 | 2.6 | 0.00 | 0.00 | 0.00 | 76 | 1012.4 |
| 20260505191516 | 55 | 21 | 3.5 | 6.1 | 0.00 | 0.00 | 0.00 | 76 | 1012.3 |
| 20260505191014 | 55 | 254 | 1.7 | 1.7 | 0.00 | 0.00 | 0.00 | 77 | 1012.3 |
| 20260505190508 | 55 | 333 | 3.5 | 7.0 | 0.00 | 0.00 | 0.00 | 77 | 1012.1 |
| 20260505190004 | 55 | 334 | 3.5 | 6.1 | 0.00 | 0.00 | 0.00 | 77 | 1012.3 |
| 20260505185501 | 55 | 296 | 0.9 | 0.9 | 0.00 | 0.00 | 0.00 | 77 | 1012.3 |
| 20260505184957 | 56 | 238 | 0.9 | 1.7 | 0.00 | 0.00 | 0.00 | 77 | 1012.0 |
| 20260505184455 | 56 | 229 | 1.7 | 3.5 | 0.00 | 0.00 | 0.00 | 77 | 1012.0 |
| 20260505183951 | 56 | 342 | 3.5 | 5.2 | 0.00 | 0.00 | 0.00 | 77 | 1012.0 |
| 20260505183448 | 56 | 314 | 4.3 | 7.8 | 0.00 | 0.00 | 0.00 | 77 | 1012.0 |
| 20260505182944 | 56 | 331 | 4.3 | 7.0 | 0.00 | 0.00 | 0.00 | 77 | 1012.0 |
| 20260505182442 | 56 | 329 | 5.2 | 9.6 | 0.00 | 0.00 | 0.00 | 76 | 1011.9 |
| 20260505181938 | 57 | 221 | 4.3 | 7.0 | 0.00 | 0.00 | 0.00 | 76 | 1011.9 |
| 20260505181435 | 57 | 32 | 0.9 | 1.7 | 0.00 | 0.00 | 0.00 | 76 | 1011.8 |
| 20260505180932 | 57 | 305 | 2.6 | 5.2 | 0.00 | 0.00 | 0.00 | 75 | 1011.5 |
| 20260505180428 | 57 | 46 | 1.7 | 2.6 | 0.00 | 0.00 | 0.00 | 75 | 1011.8 |
| 20260505175925 | 57 | 61 | 1.7 | 2.6 | 0.00 | 0.00 | 0.00 | 75 | 1011.5 |
| 20260505175421 | 57 | 10 | 2.6 | 3.5 | 0.00 | 0.00 | 0.00 | 76 | 1011.2 |
| 20260505174918 | 57 | 232 | 1.7 | 3.5 | 0.00 | 0.00 | 0.00 | 76 | 1011.2 |
| 20260505174416 | 57 | 320 | 2.6 | 5.2 | 0.00 | 0.00 | 0.00 | 76 | 1011.1 |
| 20260505173912 | 57 | 325 | 4.3 | 7.8 | 0.00 | 0.00 | 0.00 | 77 | 1011.0 |
| 20260505173408 | 57 | 51 | 1.7 | 2.6 | 0.00 | 0.00 | 0.00 | 77 | 1011.0 |
| 20260505172905 | 57 | 9 | 0.9 | 1.7 | 0.00 | 0.00 | 0.00 | 77 | 1010.8 |
| 20260505172403 | 57 | 0 | 4.3 | 6.1 | 0.00 | 0.00 | 0.00 | 77 | 1010.7 |
| 20260505171902 | 57 | 25 | 4.3 | 8.7 | 0.00 | 0.00 | 0.00 | 77 | 1010.9 |
| 20260505171359 | 57 | 41 | 1.7 | 2.6 | 0.00 | 0.00 | 0.00 | 78 | 1010.4 |
| 20260505170856 | 57 | 18 | 3.5 | 6.1 | 0.00 | 0.00 | 0.00 | 78 | 1010.6 |
| 20260505170353 | 57 | 335 | 1.7 | 1.7 | 0.00 | 0.00 | 0.00 | 78 | 1010.6 |
| 20260505165848 | 57 | 316 | 5.2 | 8.7 | 0.00 | 0.00 | 0.00 | 79 | 1010.6 |
| 20260505165344 | 57 | 5 | 3.5 | 3.5 | 0.00 | 0.00 | 0.00 | 78 | 1010.5 |
| 20260505164840 | 57 | 20 | 3.5 | 7.0 | 0.00 | 0.00 | 0.00 | 78 | 1010.4 |
| 20260505164337 | 58 | 105 | 2.6 | 2.6 | 0.00 | 0.00 | 0.00 | 78 | 1010.3 |
| 20260505163835 | 57 | 97 | 1.7 | 1.7 | 0.00 | 0.00 | 0.00 | 79 | 1009.8 |
| 20260505163334 | 57 | 211 | 7.0 | 9.6 | 0.00 | 0.00 | 0.00 | 80 | 1009.9 |
| 20260505162832 | 57 | 2 | 4.3 | 8.7 | 0.00 | 0.00 | 0.00 | 80 | 1009.7 |
| 20260505162327 | 57 | 83 | 2.6 | 2.6 | 0.00 | 0.00 | 0.00 | 80 | 1009.8 |
| 20260505161825 | 58 | 189 | 3.5 | 6.1 | 0.00 | 0.00 | 0.00 | 80 | 1009.5 |
| 20260505161322 | 58 | 1 | 7.0 | 12.2 | 0.00 | 0.00 | 0.00 | 80 | 1009.2 |
| 20260505160819 | 58 | 29 | 2.6 | 5.2 | 0.00 | 0.00 | 0.00 | 80 | 1008.9 |
| 20260505160317 | 58 | 357 | 0.0 | 0.9 | 0.00 | 0.00 | 0.00 | 80 | 1008.8 |
| 20260505153256 | 61 | 238 | 3.5 | 3.5 | 0.00 | 0.00 | 0.00 | 81 | 1008.0 |
| 20260505152753 | 61 | 2 | 3.5 | 6.1 | 0.00 | 0.00 | 0.00 | 81 | 1008.2 |
| 20260505152250 | 62 | 237 | 1.7 | 2.6 | 0.00 | 0.00 | 0.00 | 81 | 1007.8 |
| 20260505151749 | 62 | 15 | 2.6 | 3.5 | 0.00 | 0.00 | 0.00 | 81 | 1007.8 |
| 20260505151247 | 62 | 59 | 1.7 | 2.6 | 0.00 | 0.00 | 0.00 | 80 | 1007.5 |
| 20260505150744 | 63 | 33 | 4.3 | 7.8 | 0.00 | 0.00 | 0.00 | 80 | 1007.4 |
| 20260505150241 | 64 | 235 | 2.6 | 5.2 | 0.00 | 0.00 | 0.00 | 79 | 1007.4 |
| 20260505140211 | 69 | 121 | 0.9 | 0.9 | 0.00 | 0.00 | 0.00 | 82 | 1005.6 |
| 20260505130135 | 68 | 230 | 1.7 | 2.6 | 0.00 | 0.00 | 0.00 | 83 | 1005.5 |
| 20260505124625 | 68 | 72 | 2.6 | 2.6 | 0.00 | 0.00 | 0.00 | 82 | 1005.3 |
| 20260505124121 | 68 | 232 | 0.0 | 0.0 | 0.00 | 0.00 | 0.00 | 81 | 1005.2 |
| 20260505123617 | 68 | 39 | 0.9 | 0.9 | 0.00 | 0.00 | 0.00 | 80 | 1005.1 |
| 20260505123114 | 69 | 234 | 0.9 | 0.9 | 0.00 | 0.00 | 0.00 | 80 | 1005.3 |
| 20260505122611 | 69 | 207 | 0.0 | 0.0 | 0.00 | 0.00 | 0.00 | 80 | 1005.2 |
| 20260505122108 | 69 | 236 | 0.0 | 0.0 | 0.00 | 0.00 | 0.00 | 79 | 1005.0 |
| 20260505121604 | 69 | 226 | 0.0 | 0.0 | 0.00 | 0.00 | 0.00 | 79 | 1005.0 |
| 20260505121101 | 69 | 264 | 0.9 | 1.7 | 0.00 | 0.00 | 0.00 | 79 | 1005.1 |
| 20260505120557 | 69 | 215 | 0.0 | 0.9 | 0.00 | 0.00 | 0.00 | 78 | 1004.8 |
| 20260505120053 | 69 | 236 | 0.0 | 0.0 | 0.00 | 0.00 | 0.00 | 78 | 1004.7 |
| 20260505115548 | 69 | 238 | 0.0 | 0.0 | 0.00 | 0.00 | 0.00 | 77 | 1004.8 |
| 20260505115046 | 70 | 233 | 0.0 | 0.0 | 0.00 | 0.00 | 0.00 | 76 | 1004.7 |
| 20260505114542 | 70 | 226 | 0.0 | 0.0 | 0.00 | 0.00 | 0.00 | 75 | 1004.5 |
| 20260505114039 | 70 | 234 | 0.0 | 0.9 | 0.00 | 0.00 | 0.00 | 74 | 1004.6 |
| 20260505113535 | 71 | 234 | 0.0 | 0.0 | 0.00 | 0.00 | 0.00 | 74 | 1004.2 |
| 20260505113032 | 71 | 194 | 0.0 | 0.0 | 0.00 | 0.00 | 0.00 | 74 | 1004.3 |
| 20260505112523 | 71 | 319 | 0.9 | 1.7 | 0.00 | 0.00 | 0.00 | 73 | 1004.0 |
| 20260505112021 | 71 | 253 | 0.9 | 1.7 | 0.00 | 0.00 | 0.00 | 72 | 1003.8 |
| 20260505111519 | 72 | 191 | 0.9 | 0.9 | 0.00 | 0.00 | 0.00 | 72 | 1003.5 |
| 20260505111016 | 72 | 224 | 0.0 | 0.0 | 0.00 | 0.00 | 0.00 | 72 | 1003.6 |
| 20260505110513 | 72 | 228 | 0.0 | 0.0 | 0.00 | 0.00 | 0.00 | 72 | 1003.6 |
| 20260505101945 | 73 | 190 | 2.6 | 2.6 | 0.00 | 0.00 | 0.00 | 71 | 1002.7 |
| 20260505101443 | 73 | 175 | 0.9 | 1.7 | 0.00 | 0.00 | 0.00 | 71 | 1002.5 |
| 20260505100939 | 73 | 168 | 0.9 | 0.9 | 0.00 | 0.00 | 0.00 | 71 | 1002.5 |
| 20260505100437 | 73 | 233 | 0.9 | 0.9 | 0.00 | 0.00 | 0.00 | 71 | 1002.5 |
| 20260505095933 | 73 | 105 | 0.0 | 0.9 | 0.00 | 0.00 | 0.00 | 71 | 1002.6 |
| 20260505095430 | 73 | 145 | 0.0 | 0.9 | 0.00 | 0.00 | 0.00 | 71 | 1002.4 |
| 20260505094926 | 73 | 168 | 2.6 | 5.2 | 0.00 | 0.00 | 0.00 | 71 | 1002.3 |
| 20260505094423 | 73 | 160 | 2.6 | 3.5 | 0.00 | 0.00 | 0.00 | 71 | 1002.5 |
| 20260505093919 | 73 | 216 | 1.7 | 1.7 | 0.00 | 0.00 | 0.00 | 71 | 1002.3 |
| 20260505093416 | 73 | 217 | 1.7 | 2.6 | 0.00 | 0.00 | 0.00 | 71 | 1002.3 |
| 20260505092913 | 73 | 109 | 1.7 | 1.7 | 0.00 | 0.00 | 0.00 | 71 | 1002.5 |
| 20260505092411 | 73 | 114 | 1.7 | 2.6 | 0.00 | 0.00 | 0.00 | 71 | 1002.5 |
| 20260505091908 | 73 | 117 | 1.7 | 3.5 | 0.00 | 0.00 | 0.00 | 71 | 1002.3 |
| 20260505091406 | 73 | 193 | 1.7 | 2.6 | 0.00 | 0.00 | 0.00 | 71 | 1002.4 |
| 20260505090904 | 73 | 291 | 2.6 | 3.5 | 0.00 | 0.00 | 0.00 | 71 | 1002.6 |
| 20260505090402 | 73 | 230 | 0.9 | 1.7 | 0.00 | 0.00 | 0.00 | 71 | 1002.4 |
| 20260505085859 | 73 | 53 | 1.7 | 1.7 | 0.00 | 0.00 | 0.00 | 71 | 1002.4 |
| 20260505085357 | 73 | 218 | 0.9 | 1.7 | 0.00 | 0.00 | 0.00 | 70 | 1002.6 |
| 20260505084854 | 73 | 215 | 0.9 | 1.7 | 0.00 | 0.00 | 0.00 | 70 | 1002.7 |
| 20260505084352 | 73 | 224 | 0.9 | 0.9 | 0.00 | 0.00 | 0.00 | 71 | 1002.5 |
| 20260505083850 | 73 | 197 | 0.9 | 1.7 | 0.00 | 0.00 | 0.00 | 71 | 1002.7 |
| 20260505083347 | 73 | 205 | 0.9 | 1.7 | 0.00 | 0.00 | 0.00 | 71 | 1002.8 |
| 20260505082843 | 73 | 202 | 0.9 | 0.9 | 0.00 | 0.00 | 0.00 | 71 | 1002.9 |
| 20260505082339 | 73 | 183 | 1.7 | 1.7 | 0.00 | 0.00 | 0.00 | 71 | 1003.1 |
| 20260505081836 | 73 | 192 | 1.7 | 1.7 | 0.00 | 0.00 | 0.00 | 71 | 1002.9 |
| 20260505081333 | 73 | 125 | 1.7 | 1.7 | 0.00 | 0.00 | 0.00 | 71 | 1003.2 |
| 20260505080830 | 73 | 118 | 0.9 | 1.7 | 0.00 | 0.00 | 0.00 | 71 | 1003.1 |
| 20260505080325 | 73 | 134 | 1.7 | 1.7 | 0.00 | 0.00 | 0.00 | 71 | 1002.9 |
| 20260505075821 | 73 | 186 | 1.7 | 2.6 | 0.00 | 0.00 | 0.00 | 71 | 1003.2 |
| 20260505075319 | 73 | 110 | 1.7 | 3.5 | 0.00 | 0.00 | 0.00 | 71 | 1003.3 |
| 20260505074816 | 73 | 123 | 3.5 | 7.0 | 0.00 | 0.00 | 0.00 | 71 | 1003.3 |
| 20260505074313 | 73 | 212 | 0.0 | 0.9 | 0.00 | 0.00 | 0.00 | 71 | 1003.4 |
| 20260505073810 | 73 | 211 | 0.9 | 0.9 | 0.00 | 0.00 | 0.00 | 71 | 1003.3 |
| 20260505073308 | 73 | 217 | 0.9 | 1.7 | 0.00 | 0.00 | 0.00 | 71 | 1003.4 |
| 20260505072805 | 73 | 193 | 3.5 | 3.5 | 0.00 | 0.00 | 0.00 | 71 | 1003.3 |
| 20260505072301 | 73 | 230 | 3.5 | 7.0 | 0.00 | 0.00 | 0.00 | 71 | 1003.6 |
| 20260505071756 | 73 | 172 | 1.7 | 2.6 | 0.00 | 0.00 | 0.00 | 71 | 1003.5 |
| 20260505071253 | 73 | 179 | 0.0 | 0.0 | 0.00 | 0.00 | 0.00 | 71 | 1003.5 |
| 20260505070751 | 73 | 221 | 0.9 | 0.9 | 0.00 | 0.00 | 0.00 | 71 | 1003.6 |
| 20260505070247 | 73 | 55 | 4.3 | 7.8 | 0.00 | 0.00 | 0.00 | 70 | 1004.1 |
| 20260505065743 | 73 | 296 | 3.5 | 5.2 | 0.00 | 0.00 | 0.00 | 70 | 1004.0 |
| 20260505065240 | 73 | 129 | 0.9 | 0.9 | 0.00 | 0.00 | 0.00 | 70 | 1004.1 |
| 20260505064737 | 74 | 239 | 2.6 | 5.2 | 0.00 | 0.00 | 0.00 | 70 | 1004.0 |
| 20260505064235 | 74 | 261 | 2.6 | 3.5 | 0.00 | 0.00 | 0.00 | 69 | 1004.1 |
| 20260505063732 | 74 | 196 | 0.9 | 0.9 | 0.00 | 0.00 | 0.00 | 70 | 1003.9 |
| 20260505063228 | 74 | 126 | 3.5 | 7.0 | 0.00 | 0.00 | 0.00 | 69 | 1004.1 |
| 20260505062724 | 74 | 145 | 3.5 | 5.2 | 0.00 | 0.00 | 0.00 | 70 | 1004.3 |
| 20260505062222 | 74 | 210 | 3.5 | 5.2 | 0.00 | 0.00 | 0.00 | 69 | 1004.2 |
| 20260505061719 | 74 | 160 | 1.7 | 1.7 | 0.00 | 0.00 | 0.00 | 69 | 1004.4 |
| 20260505061217 | 74 | 105 | 1.7 | 2.6 | 0.00 | 0.00 | 0.00 | 69 | 1004.3 |
| 20260505060714 | 74 | 128 | 3.5 | 5.2 | 0.00 | 0.00 | 0.00 | 69 | 1004.2 |
| 20260505060211 | 73 | 106 | 2.6 | 2.6 | 0.00 | 0.00 | 0.00 | 70 | 1004.3 |
| 20260505055706 | 73 | 155 | 0.9 | 1.7 | 0.00 | 0.00 | 0.00 | 70 | 1004.4 |
| 20260505055203 | 74 | 222 | 1.7 | 2.6 | 0.00 | 0.00 | 0.00 | 69 | 1004.5 |
| 20260505054700 | 74 | 94 | 0.9 | 1.7 | 0.00 | 0.00 | 0.00 | 69 | 1004.6 |
| 20260505054158 | 74 | 136 | 2.6 | 2.6 | 0.00 | 0.00 | 0.00 | 69 | 1004.5 |
| 20260505053656 | 74 | 194 | 1.7 | 5.2 | 0.00 | 0.00 | 0.00 | 69 | 1004.7 |
| 20260505053152 | 74 | 116 | 0.9 | 0.9 | 0.00 | 0.00 | 0.00 | 69 | 1004.6 |
| 20260505052649 | 74 | 182 | 2.6 | 2.6 | 0.00 | 0.00 | 0.00 | 69 | 1004.6 |
| 20260505052146 | 74 | 171 | 0.9 | 1.7 | 0.00 | 0.00 | 0.00 | 69 | 1004.5 |
| 20260505051643 | 74 | 208 | 1.7 | 1.7 | 0.00 | 0.00 | 0.00 | 68 | 1004.8 |
| 20260505051142 | 74 | 230 | 1.7 | 2.6 | 0.00 | 0.00 | 0.00 | 68 | 1004.7 |
| 20260505050639 | 74 | 164 | 1.7 | 1.7 | 0.00 | 0.00 | 0.00 | 68 | 1005.0 |
| 20260505050137 | 74 | 170 | 3.5 | 5.2 | 0.00 | 0.00 | 0.00 | 68 | 1004.9 |
| 20260505041607 | 75 | 211 | 1.7 | 2.6 | 0.00 | 0.00 | 0.00 | 67 | 1005.3 |
| 20260505041104 | 75 | 141 | 2.6 | 3.5 | 0.00 | 0.00 | 0.00 | 67 | 1005.2 |
| 20260505040601 | 75 | 137 | 2.6 | 6.1 | 0.00 | 0.00 | 0.00 | 67 | 1005.4 |
| 20260505040058 | 75 | 305 | 2.6 | 5.2 | 0.00 | 0.00 | 0.00 | 67 | 1005.6 |
| 20260505035554 | 75 | 256 | 1.7 | 1.7 | 0.00 | 0.00 | 0.00 | 66 | 1005.4 |
| 20260505035051 | 75 | 161 | 1.7 | 3.5 | 0.00 | 0.00 | 0.00 | 66 | 1005.4 |
| 20260505034547 | 75 | 24 | 0.9 | 0.9 | 0.00 | 0.00 | 0.00 | 66 | 1005.3 |
| 20260505034044 | 76 | 163 | 2.6 | 3.5 | 0.00 | 0.00 | 0.00 | 65 | 1005.4 |
| 20260505033541 | 76 | 142 | 4.3 | 6.1 | 0.00 | 0.00 | 0.00 | 65 | 1005.4 |
| 20260505033040 | 76 | 123 | 3.5 | 5.2 | 0.00 | 0.00 | 0.00 | 65 | 1005.2 |
| 20260505032537 | 76 | 113 | 0.9 | 1.7 | 0.00 | 0.00 | 0.00 | 65 | 1005.2 |
| 20260505032033 | 76 | 128 | 0.9 | 0.9 | 0.00 | 0.00 | 0.00 | 65 | 1005.1 |
| 20260505031531 | 76 | 174 | 2.6 | 3.5 | 0.00 | 0.00 | 0.00 | 64 | 1005.2 |
| 20260505031027 | 76 | 78 | 3.5 | 5.2 | 0.00 | 0.00 | 0.00 | 64 | 1005.0 |
| 20260505030524 | 76 | 144 | 1.7 | 5.2 | 0.00 | 0.00 | 0.00 | 64 | 1005.1 |
| 20260505030020 | 76 | 150 | 1.7 | 6.1 | 0.00 | 0.00 | 0.00 | 64 | 1005.3 |
| 20260505025516 | 76 | 217 | 1.7 | 3.5 | 0.00 | 0.00 | 0.00 | 63 | 1005.0 |
| 20260505025015 | 77 | 169 | 2.6 | 3.5 | 0.00 | 0.00 | 0.00 | 63 | 1004.9 |
| 20260505024511 | 77 | 120 | 3.5 | 3.5 | 0.00 | 0.00 | 0.00 | 63 | 1004.7 |
| 20260505024009 | 77 | 194 | 3.5 | 5.2 | 0.00 | 0.00 | 0.00 | 63 | 1004.6 |
| 20260505023505 | 77 | 124 | 3.5 | 6.1 | 0.00 | 0.00 | 0.00 | 63 | 1004.8 |
| 20260505023003 | 77 | 84 | 4.3 | 6.1 | 0.00 | 0.00 | 0.00 | 62 | 1004.9 |
| 20260505022501 | 77 | 169 | 6.1 | 9.6 | 0.00 | 0.00 | 0.00 | 62 | 1004.7 |
| 20260505021958 | 77 | 139 | 6.1 | 7.8 | 0.00 | 0.00 | 0.00 | 62 | 1004.6 |
| 20260505021454 | 77 | 109 | 3.5 | 7.0 | 0.00 | 0.00 | 0.00 | 62 | 1004.6 |
| 20260505020950 | 77 | 242 | 3.5 | 5.2 | 0.00 | 0.00 | 0.00 | 62 | 1004.3 |
| 20260505020445 | 77 | 211 | 1.7 | 1.7 | 0.00 | 0.00 | 0.00 | 61 | 1004.5 |
| 20260505015942 | 78 | 135 | 3.5 | 7.0 | 0.00 | 0.00 | 0.00 | 61 | 1004.7 |
| 20260505015440 | 78 | 147 | 5.2 | 7.8 | 0.00 | 0.00 | 0.00 | 61 | 1004.5 |